period_start,C,m1,H,J0,J1,J2,J3,J4,J5,JA,JB,JC,JD,JJ,JK,JN,#
2016-03-10 00:03:45,0.10,2.96,0.00,21.49,26.02,29.96,14.63,48.86,1014.17,2035.36,2461.18,2419.73,2719.02,599.87,597.56,37.23,0000 0000 0000 0000 000000
2016-03-10 00:08:46,0.10,2.97,0.00,21.46,25.99,29.90,14.65,49.02,1014.17,2035.84,2460.03,2419.01,2718.29,599.85,597.57,37.28,0000 0000 0000 0000 000000
2016-03-10 00:13:47,0.09,2.97,0.00,21.42,25.96,29.94,14.67,49.10,1014.17,2035.95,2458.80,2418.21,2717.40,600.07,597.89,37.33,0000 0000 0000 0000 000000
2016-03-10 00:18:48,0.08,2.98,0.00,21.40,25.93,29.93,14.70,49.09,1014.17,2035.98,2457.62,2417.53,2716.48,600.11,597.78,37.38,0000 0000 0000 0000 000000
2016-03-10 00:23:49,0.06,2.98,0.00,21.39,25.91,29.84,14.59,49.03,1014.17,2035.99,2456.40,2416.79,2715.68,600.15,598.27,37.43,0000 0000 0000 0000 000000
2016-03-10 00:28:51,0.10,2.98,0.00,21.36,25.88,29.86,14.62,49.14,1014.17,2035.99,2454.68,2415.84,2714.57,600.12,598.05,37.48,0000 0000 0000 0000 000000
2016-03-10 00:33:52,0.08,2.99,0.00,21.31,25.86,29.94,14.63,49.15,1014.17,2036.01,2453.35,2414.98,2713.66,599.89,597.94,37.53,0000 0000 0000 0000 000000
2016-03-10 00:38:53,0.08,2.99,0.00,21.30,25.83,29.81,14.72,49.10,1014.18,2036.09,2452.11,2414.18,2712.78,600.04,598.11,37.58,0000 0000 0000 0000 000000
2016-03-10 00:43:55,0.11,3.00,0.00,21.29,25.81,29.80,14.70,49.11,1014.18,2036.23,2450.85,2413.37,2711.92,600.17,598.32,37.63,0000 0000 0000 0000 000000
2016-03-10 00:48:56,0.10,3.00,0.00,21.27,25.79,29.81,14.73,49.12,1014.18,2036.52,2449.62,2412.68,2711.03,600.25,598.35,37.68,0000 0000 0000 0000 000000
2016-03-10 00:53:57,0.09,3.01,0.00,21.24,25.76,29.73,14.67,49.26,1014.18,2036.87,2448.54,2412.00,2710.16,600.05,598.13,37.73,0000 0000 0000 0000 000000
2016-03-10 00:58:58,0.09,3.01,0.00,21.22,25.74,29.73,14.68,49.23,1014.18,2036.97,2447.46,2411.25,2709.45,599.79,597.90,37.78,0000 0000 0000 0000 000000
2016-03-10 01:03:59,0.08,3.02,0.00,21.21,25.72,29.76,14.64,49.31,1014.18,2036.98,2446.02,2410.52,2708.58,599.40,597.64,37.83,0000 0000 0000 0000 000000
2016-03-10 01:09:01,0.11,3.03,0.00,21.18,25.70,29.69,14.65,49.32,1014.18,2036.99,2444.13,2409.36,2707.37,600.30,598.53,37.88,0000 0000 0000 0000 000000
2016-03-10 01:14:02,0.09,3.03,0.00,21.17,25.67,29.74,14.71,49.20,1014.18,2036.99,2442.61,2408.46,2706.38,600.15,598.52,37.93,0000 0000 0000 0000 000000
2016-03-10 01:19:03,0.08,3.03,0.00,21.15,25.65,29.71,14.68,49.23,1014.18,2036.99,2441.40,2407.71,2705.36,599.98,598.36,37.99,0000 0000 0000 0000 000000
2016-03-10 01:24:05,0.08,3.04,0.00,21.12,25.64,29.63,14.74,49.38,1014.17,2037.02,2439.96,2406.80,2704.35,600.29,598.72,38.04,0000 0000 0000 0000 000000
2016-03-10 01:29:06,0.10,3.04,0.00,21.10,25.62,29.62,14.74,49.27,1014.16,2037.04,2438.62,2405.89,2703.38,600.00,598.42,38.09,0000 0000 0000 0000 000000
2016-03-10 01:34:07,0.08,3.05,0.00,21.09,25.61,29.71,14.64,49.25,1014.17,2037.11,2437.32,2405.04,2702.42,599.80,598.32,38.14,0000 0000 0000 0000 000000
2016-03-10 01:39:08,0.09,3.05,0.00,21.07,25.60,29.60,14.65,49.15,1014.17,2037.18,2436.11,2404.22,2701.47,599.68,598.30,38.19,0000 0000 0000 0000 000000
2016-03-10 01:44:10,0.11,3.06,0.00,21.04,25.60,29.62,14.66,49.17,1014.17,2037.37,2434.89,2403.52,2700.62,600.33,598.93,38.24,0000 0000 0000 0000 000000
2016-03-10 01:49:11,0.09,3.06,0.00,21.03,25.57,29.70,14.74,49.26,1014.17,2037.56,2433.65,2402.82,2699.76,600.22,598.82,38.29,0000 0000 0000 0000 000000
2016-03-10 01:54:12,0.07,3.07,0.00,21.00,25.57,29.70,14.72,49.27,1014.17,2037.76,2432.60,2402.04,2698.95,600.35,598.93,38.34,0000 0000 0000 0000 000000
2016-03-10 01:59:13,0.14,3.07,0.00,21.00,25.56,29.67,14.73,49.27,1014.17,2037.79,2430.94,2401.16,2697.60,600.31,598.94,38.39,0000 0000 0000 0000 000000
2016-03-10 02:04:15,0.08,3.08,0.00,20.99,25.55,29.62,14.58,49.10,1014.15,2037.81,2429.47,2400.06,2696.63,599.88,598.58,38.44,0000 0000 0000 0000 000000
2016-03-10 02:09:16,0.08,3.08,0.00,20.96,25.54,29.64,14.70,49.33,1014.10,2037.86,2428.13,2399.30,2695.75,599.76,598.40,38.49,0000 0000 0000 0000 000000
2016-03-10 02:14:17,0.09,3.09,0.00,20.96,25.52,29.61,14.67,49.29,1013.89,2037.95,2426.90,2398.52,2694.84,599.94,598.40,38.54,0000 0000 0000 0000 000000
2016-03-10 02:19:19,0.09,3.09,0.00,20.95,25.51,29.58,14.60,49.24,1013.99,2037.97,2425.56,2397.67,2693.81,599.57,598.36,38.59,0000 0000 0000 0000 000000
2016-03-10 02:24:20,0.10,3.10,0.00,20.94,25.50,29.59,14.63,49.29,1013.96,2037.96,2423.93,2396.70,2692.74,600.02,598.59,38.64,0000 0000 0000 0000 000000
2016-03-10 02:29:21,0.09,3.10,0.00,20.92,25.48,29.60,14.69,49.37,1013.86,2037.98,2422.37,2395.84,2691.74,600.02,598.72,38.69,0000 0000 0000 0000 000000
2016-03-10 02:34:23,0.13,3.11,0.00,20.92,25.47,29.55,14.76,49.20,1013.72,2037.97,2420.52,2394.62,2690.41,600.51,599.01,38.74,0000 0000 0000 0000 000000
2016-03-10 02:39:24,0.12,3.12,0.00,20.92,25.46,29.61,14.65,49.24,1013.73,2037.98,2418.65,2393.36,2689.05,600.00,598.59,38.79,0000 0000 0000 0000 000000
2016-03-10 02:44:25,0.09,3.12,0.00,20.92,25.45,29.61,14.71,49.39,1013.74,2037.99,2417.12,2392.47,2687.96,599.72,598.27,38.84,0000 0000 0000 0000 000000
2016-03-10 02:49:27,0.12,3.13,0.00,20.92,25.44,29.55,14.68,49.25,1013.84,2037.99,2415.32,2391.40,2686.80,599.81,598.43,38.90,0000 0000 0000 0000 000000
2016-03-10 02:54:27,0.11,3.13,0.00,20.91,25.42,29.54,14.64,49.28,1013.97,2037.99,2413.40,2390.15,2685.46,599.73,598.47,38.95,0000 0000 0000 0000 000000
2016-03-10 02:59:28,0.11,3.14,0.00,20.91,25.42,29.55,14.68,49.05,1013.99,2037.99,2411.69,2389.06,2684.26,599.95,598.56,39.00,0000 0000 0000 0000 000000
2016-03-10 03:04:29,0.11,3.15,0.00,20.91,25.40,29.57,14.70,49.26,1014.06,2037.99,2409.95,2387.96,2683.00,600.12,598.87,39.05,0000 0000 0000 0000 000000
2016-03-10 03:09:31,0.13,3.15,0.00,20.90,25.40,29.60,14.71,49.35,1014.07,2037.99,2408.09,2386.79,2681.69,599.95,598.73,39.10,0000 0000 0000 0000 000000
2016-03-10 03:14:32,0.11,3.16,0.00,20.90,25.39,29.58,14.67,49.28,1014.13,2038.02,2406.45,2385.69,2680.46,599.68,598.47,39.15,0000 0000 0000 0000 000000
2016-03-10 03:19:33,0.08,3.16,0.00,20.92,25.38,29.55,14.70,49.15,1014.15,2038.02,2405.00,2384.79,2679.43,600.21,598.85,39.20,0000 0000 0000 0000 000000
2016-03-10 03:24:34,0.11,3.17,0.00,20.91,25.37,29.56,14.66,49.18,1014.17,2038.02,2403.37,2383.73,2678.20,599.82,598.60,39.25,0000 0000 0000 0000 000000
2016-03-10 03:29:36,0.64,3.19,0.00,20.90,25.37,29.54,14.72,49.29,1014.17,2038.02,2396.95,2378.72,2672.85,599.96,598.85,39.30,0000 0000 0000 0000 000000
2016-03-10 03:34:37,0.56,3.22,0.00,20.90,25.37,29.54,14.73,49.42,1014.17,2038.03,2388.55,2372.21,2665.85,600.13,598.97,39.35,0000 0000 0000 0000 000000
2016-03-10 03:39:39,0.38,3.24,0.00,20.91,25.36,29.56,14.71,49.39,1014.17,2038.01,2382.86,2368.05,2661.31,599.92,598.84,39.40,0000 0000 0000 0000 000000
2016-03-10 03:44:40,0.33,3.26,0.00,20.92,25.35,29.55,14.67,49.28,1014.17,2038.05,2378.14,2364.81,2657.65,600.13,599.01,39.45,0000 0000 0000 0000 000000
2016-03-10 03:49:41,0.31,3.28,0.00,20.93,25.35,29.52,14.73,49.23,1014.17,2038.06,2373.84,2361.65,2654.17,600.24,599.04,39.50,0000 0000 0000 0000 000000
2016-03-10 03:54:42,0.33,3.29,0.00,20.93,25.35,29.51,14.68,49.20,1014.17,2038.08,2369.53,2358.52,2650.73,599.85,598.60,39.55,0000 0000 0000 0000 000000
2016-03-10 03:59:44,0.25,3.31,0.00,20.93,25.33,29.53,14.66,49.27,1014.17,2038.06,2365.80,2355.69,2647.55,599.31,598.10,39.60,0000 0000 0000 0000 000000
2016-03-10 04:04:45,0.17,3.32,0.00,20.94,25.32,29.52,14.66,49.40,1014.17,2038.08,2363.28,2353.89,2645.62,599.40,598.17,39.65,0000 0000 0000 0000 000000
2016-03-10 04:09:47,0.15,3.33,0.00,20.95,25.32,29.54,14.79,49.52,1014.17,2038.07,2361.05,2352.49,2644.01,600.39,599.13,39.70,0000 0000 0000 0000 000000
2016-03-10 04:14:48,0.13,3.33,0.00,20.96,25.32,29.48,14.69,49.15,1014.18,2038.19,2359.10,2351.19,2642.62,600.09,598.89,39.75,0000 0000 0000 0000 000000
2016-03-10 04:19:49,0.14,3.34,0.00,20.98,25.32,29.53,14.66,49.31,1014.18,2038.16,2357.09,2349.85,2641.09,599.88,598.56,39.80,0000 0000 0000 0000 000000
2016-03-10 04:24:50,0.14,3.35,0.00,20.98,25.32,29.52,14.70,49.27,1014.18,2038.12,2355.04,2348.52,2639.65,599.76,598.47,39.86,0000 0000 0000 0000 000000
2016-03-10 04:29:51,0.11,3.35,0.00,20.98,25.32,29.56,14.71,49.42,1014.18,2038.24,2353.41,2347.53,2638.45,600.01,598.69,39.91,0000 0000 0000 0000 000000
2016-03-10 04:34:52,0.10,3.36,0.00,20.99,25.32,29.55,14.63,49.18,1014.18,2038.16,2351.64,2346.33,2637.13,600.19,598.89,39.96,0000 0000 0000 0000 000000
2016-03-10 04:39:54,0.17,3.37,0.00,20.99,25.32,29.57,14.71,49.17,1014.18,2038.20,2349.42,2344.80,2635.41,600.22,598.85,40.01,0000 0000 0000 0000 000000
2016-03-10 04:44:55,0.15,3.38,0.00,20.99,25.32,29.59,14.63,49.38,1014.18,2038.15,2347.35,2343.34,2633.75,600.08,598.75,40.06,0000 0000 0000 0000 000000
2016-03-10 04:49:56,0.17,3.39,0.00,21.02,25.34,29.64,14.72,49.33,1014.18,2038.11,2344.90,2341.60,2631.83,600.32,598.95,40.11,0000 0000 0000 0000 000000
2016-03-10 04:54:58,0.15,3.39,0.00,21.02,25.35,29.57,14.67,49.41,1014.18,2038.08,2342.61,2340.01,2630.05,599.90,598.52,40.16,0000 0000 0000 0000 000000
2016-03-10 04:59:59,0.14,3.40,0.00,21.02,25.35,29.59,14.64,49.31,1014.19,2038.03,2340.56,2338.58,2628.53,599.73,598.48,40.21,0000 0000 0000 0000 000000
2016-03-10 05:05:00,0.11,3.41,0.00,21.03,25.37,29.60,14.69,49.33,1014.18,2038.02,2338.72,2337.47,2627.25,599.96,598.42,40.26,0000 0000 0000 0000 000000
2016-03-10 05:10:01,0.10,3.41,0.00,21.05,25.37,29.62,14.65,49.26,1014.20,2038.05,2337.16,2336.46,2626.08,599.69,598.25,40.31,0000 0000 0000 0000 000000
2016-03-10 05:15:02,0.13,3.42,0.00,21.07,25.37,29.64,14.66,49.32,1014.20,2038.02,2335.28,2335.15,2624.70,600.05,598.54,40.36,0000 0000 0000 0000 000000
2016-03-10 05:20:03,0.17,3.43,0.00,21.08,25.37,29.63,14.75,49.36,1014.20,2038.02,2332.95,2333.61,2623.06,600.14,598.63,40.41,0000 0000 0000 0000 000000
2016-03-10 05:25:05,0.18,3.44,0.00,21.09,25.39,29.62,14.65,49.52,1014.21,2038.04,2330.39,2331.95,2621.32,600.18,598.52,40.46,0000 0000 0000 0000 000000
2016-03-10 05:30:06,0.24,3.45,0.00,21.10,25.40,29.68,14.59,49.37,1014.21,2038.01,2327.24,2329.73,2618.81,599.59,597.98,40.51,0000 0000 0000 0000 000000
2016-03-10 05:35:07,0.22,3.46,0.00,21.11,25.40,29.67,14.65,49.30,1014.21,2038.00,2324.06,2327.53,2616.32,599.82,598.19,40.56,0000 0000 0000 0000 000000
2016-03-10 05:40:08,0.21,3.47,0.00,21.11,25.41,29.69,14.73,49.32,1014.23,2038.00,2321.17,2325.50,2614.13,600.18,598.55,40.61,0000 0000 0000 0000 000000
2016-03-10 05:45:10,0.21,3.48,0.00,21.12,25.42,29.68,14.76,49.48,1014.30,2038.00,2318.30,2323.57,2611.91,600.55,598.86,40.66,0000 0000 0000 0000 000000
2016-03-10 05:50:11,0.13,3.49,0.00,21.12,25.42,29.69,14.71,49.33,1014.34,2038.00,2316.08,2322.06,2610.31,600.11,598.62,40.71,0000 0000 0000 0000 000000
2016-03-10 05:55:12,0.10,3.50,0.00,21.13,25.42,29.68,14.67,49.24,1014.42,2038.00,2314.60,2321.05,2609.13,600.07,598.59,40.76,0000 0000 0000 0000 000000
2016-03-10 06:00:13,0.15,3.50,0.00,21.13,25.42,29.71,14.65,49.26,1014.57,2038.00,2312.89,2319.83,2607.82,600.38,599.01,40.82,0000 0000 0000 0000 000000
2016-03-10 06:05:14,0.17,3.51,0.00,21.13,25.42,29.63,14.60,49.30,1014.61,2038.00,2310.41,2318.25,2605.99,599.72,598.39,40.87,0000 0000 0000 0000 000000
2016-03-10 06:10:16,0.17,3.52,0.00,21.13,25.42,29.67,14.71,49.45,1014.64,2038.00,2308.06,2316.66,2604.20,600.40,599.06,40.92,0000 0000 0000 0000 000000
2016-03-10 06:15:17,0.19,3.53,0.00,21.14,25.42,29.68,14.67,49.25,1014.64,2038.00,2305.50,2314.98,2602.30,599.93,598.53,40.97,0000 0000 0000 0000 000000
2016-03-10 06:20:18,0.26,3.54,0.00,21.13,25.42,29.62,14.74,49.09,1014.64,2038.00,2302.11,2312.70,2599.73,600.57,599.27,41.02,0000 0000 0000 0000 000000
2016-03-10 06:25:19,0.24,3.56,0.00,21.14,25.42,29.69,14.67,49.28,1014.66,2038.00,2298.56,2310.43,2597.20,600.12,598.80,41.07,0000 0000 0000 0000 000000
2016-03-10 06:30:20,0.22,3.57,0.00,21.14,25.42,29.67,14.64,49.25,1014.66,2038.00,2295.37,2308.41,2594.95,600.01,598.80,41.12,0000 0000 0000 0000 000000
2016-03-10 06:35:22,0.18,3.58,0.00,21.14,25.42,29.63,14.62,49.30,1014.66,2038.00,2292.63,2306.67,2592.97,599.72,598.37,41.17,0000 0000 0000 0000 000000
2016-03-10 06:40:23,0.17,3.59,0.00,21.13,25.42,29.67,14.65,49.27,1014.66,2038.00,2290.28,2305.05,2591.16,599.84,598.58,41.22,0000 0000 0000 0000 000000
2016-03-10 06:45:24,0.19,3.59,0.00,21.13,25.42,29.66,14.70,49.21,1014.66,2038.00,2287.57,2303.33,2589.12,599.90,598.69,41.27,0000 0000 0000 0000 000000
2016-03-10 06:50:26,0.19,3.61,0.00,21.12,25.42,29.64,14.61,49.21,1014.66,2038.00,2284.94,2301.64,2587.21,600.12,598.80,41.32,0000 0000 0000 0000 000000
2016-03-10 06:55:27,0.20,3.62,0.00,21.12,25.42,29.60,14.68,49.13,1014.66,2038.00,2282.34,2299.81,2585.18,600.01,598.76,41.37,0000 0000 0000 0000 000000
2016-03-10 07:00:28,0.20,3.63,0.00,21.12,25.42,29.65,14.59,49.02,1014.66,2038.00,2279.62,2297.93,2583.13,600.02,598.72,41.42,0000 0000 0000 0000 000000
2016-03-10 07:05:29,0.20,3.64,0.00,21.12,25.42,29.68,14.79,49.46,1014.67,2038.00,2276.96,2296.07,2581.04,600.30,598.96,41.47,0000 0000 0000 0000 000000
2016-03-10 07:10:31,0.23,3.65,0.00,21.12,25.42,29.67,14.68,49.31,1014.68,2038.00,2273.96,2294.03,2578.76,600.02,598.72,41.52,0000 0000 0000 0000 000000
2016-03-10 07:15:32,0.24,3.66,0.00,21.11,25.42,29.68,14.73,49.33,1014.67,2038.00,2270.75,2291.86,2576.32,600.24,598.99,41.57,0000 0000 0000 0000 000000
2016-03-10 07:20:34,0.24,3.67,0.00,21.11,25.42,29.61,14.63,49.32,1014.73,2037.99,2267.55,2289.62,2573.94,600.09,598.77,41.62,0000 0000 0000 0000 000000
2016-03-10 07:25:35,0.25,3.69,0.00,21.09,25.42,29.65,14.76,49.42,1014.77,2037.99,2264.15,2287.34,2571.34,599.85,598.62,41.68,0000 0000 0000 0000 000000
2016-03-10 07:30:36,0.22,3.70,0.00,21.09,25.42,29.64,14.60,49.32,1014.81,2037.99,2261.12,2285.21,2569.05,599.71,598.62,41.73,0000 0000 0000 0000 000000
2016-03-10 07:35:37,0.23,3.71,0.00,21.08,25.42,29.69,14.69,49.33,1014.94,2037.99,2258.19,2283.15,2566.88,600.36,599.30,41.78,0000 0000 0000 0000 000000
2016-03-10 07:40:38,0.23,3.72,0.00,21.08,25.42,29.70,14.69,49.42,1015.08,2037.98,2255.05,2281.12,2564.62,599.88,598.99,41.83,0000 0000 0000 0000 000000
2016-03-10 07:45:40,0.24,3.73,0.00,21.08,25.40,29.60,14.69,49.44,1015.15,2037.99,2251.83,2278.97,2562.28,600.08,599.18,41.88,0000 0000 0000 0000 000000
2016-03-10 07:50:40,0.21,3.74,0.00,21.07,25.40,29.55,14.72,49.40,1015.15,2037.99,2249.05,2277.04,2560.18,600.08,599.15,41.93,0000 0000 0000 0000 000000
2016-03-10 07:55:41,0.16,3.75,0.00,21.07,25.40,29.53,14.67,49.42,1015.15,2037.99,2246.69,2275.54,2558.64,599.77,598.84,41.98,0000 0000 0000 0000 000000
2016-03-10 08:00:43,0.15,3.76,0.00,21.07,25.39,29.54,14.69,49.32,1015.15,2037.99,2244.55,2274.03,2557.04,600.19,599.23,42.03,0000 0000 0000 0000 000000
2016-03-10 08:05:44,0.17,3.77,0.00,21.07,25.37,29.50,14.63,49.23,1015.15,2037.99,2242.40,2272.54,2555.44,600.09,599.21,42.08,0000 0000 0000 0000 000000
2016-03-10 08:10:45,0.16,3.78,0.00,21.05,25.37,29.47,14.63,49.48,1015.16,2037.99,2240.19,2271.08,2553.72,599.53,598.68,42.13,0000 0000 0000 0000 000000
2016-03-10 08:15:46,0.14,3.79,0.00,21.03,25.35,29.49,14.64,49.27,1015.16,2037.99,2238.33,2269.61,2552.19,599.74,598.91,42.18,0000 0000 0000 0000 000000
2016-03-10 08:20:47,0.18,3.79,0.00,21.04,25.35,29.45,14.73,49.33,1015.16,2037.99,2236.02,2268.15,2550.45,599.89,599.03,42.23,0000 0000 0000 0000 000000
2016-03-10 08:25:48,0.18,3.80,0.00,21.03,25.32,29.39,14.66,49.19,1015.17,2037.99,2233.50,2266.48,2548.61,600.09,599.28,42.28,0000 0000 0000 0000 000000
2016-03-10 08:30:50,0.12,3.81,0.00,21.00,25.31,29.38,14.70,49.26,1015.17,2038.00,2231.76,2265.23,2547.22,599.68,598.87,42.33,0000 0000 0000 0000 000000
2016-03-10 08:35:51,0.10,3.82,0.00,21.00,25.30,29.33,14.67,49.35,1015.19,2038.00,2230.27,2264.19,2546.02,600.08,599.33,42.38,0000 0000 0000 0000 000000
2016-03-10 08:40:52,0.10,3.82,0.00,21.01,25.27,29.31,14.69,49.23,1015.19,2038.02,2229.00,2263.32,2545.09,600.07,599.30,42.43,0000 0000 0000 0000 000000
2016-03-10 08:45:54,0.09,3.83,0.00,20.98,25.26,29.27,14.67,49.21,1015.20,2038.03,2227.84,2262.58,2544.14,599.83,598.96,42.48,0000 0000 0000 0000 000000
2016-03-10 08:50:55,0.33,3.84,0.00,20.95,25.25,29.23,14.67,49.13,1015.36,2038.08,2224.47,2260.12,2541.54,599.86,599.30,42.53,0000 0000 0000 0000 000000
2016-03-10 08:55:57,0.46,3.86,0.00,20.94,25.22,29.25,14.65,49.15,1015.41,2038.12,2218.48,2256.15,2537.15,599.94,599.40,42.58,0000 0000 0000 0000 000000
2016-03-10 09:00:58,0.10,3.87,0.00,20.92,25.20,29.20,14.70,49.17,1015.51,2038.30,2216.17,2254.87,2535.74,600.27,599.83,42.63,0000 0000 0000 0000 000000
2016-03-10 09:06:00,0.11,3.88,0.00,20.91,25.18,29.18,14.67,49.23,1015.52,2038.55,2215.47,2254.08,2535.03,600.34,599.97,42.69,0000 0000 0000 0000 000000
2016-03-10 09:11:00,0.03,3.88,0.00,20.89,25.16,29.15,14.62,49.23,1015.58,2038.78,2214.92,2253.98,2534.71,599.93,599.64,42.74,0000 0000 0000 0000 000000
2016-03-10 09:16:02,0.09,3.89,0.00,20.87,25.15,29.12,14.64,49.09,1015.63,2038.96,2214.10,2253.33,2534.05,599.69,599.47,42.79,0000 0000 0000 0000 000000
2016-03-10 09:21:03,0.03,3.89,0.00,20.85,25.12,29.12,14.68,49.31,1015.63,2038.98,2213.60,2253.00,2533.82,599.77,599.63,42.84,0000 0000 0000 0000 000000
2016-03-10 09:26:04,0.06,3.89,0.00,20.83,25.10,29.08,14.67,49.23,1015.64,2038.99,2212.83,2252.65,2533.06,600.43,600.34,42.89,0000 0000 0000 0000 000000
2016-03-10 09:31:05,0.12,3.90,0.00,20.80,25.08,29.02,14.73,49.30,1015.64,2038.99,2211.38,2251.59,2532.03,600.27,600.15,42.94,0000 0000 0000 0000 000000
2016-03-10 09:36:07,0.21,3.91,0.00,20.79,25.06,29.04,14.70,49.23,1015.64,2038.99,2208.75,2249.79,2530.26,599.88,599.82,42.99,0000 0000 0000 0000 000000
2016-03-10 09:41:08,0.08,3.91,0.00,20.78,25.04,29.04,14.72,49.21,1015.64,2038.99,2207.28,2248.94,2529.09,599.68,599.57,43.04,0000 0000 0000 0000 000000
2016-03-10 09:46:09,0.09,3.92,0.00,20.75,25.02,29.00,14.69,49.13,1015.64,2038.99,2206.02,2248.08,2528.24,600.10,600.10,43.09,0000 0000 0000 0000 000000
2016-03-10 09:51:10,0.20,3.92,0.00,20.74,25.00,28.99,14.72,49.04,1015.64,2039.01,2203.89,2246.65,2526.57,600.05,600.09,43.14,0000 0000 0000 0000 000000
2016-03-10 09:56:12,0.24,3.94,0.00,20.70,24.98,28.95,14.79,49.13,1015.66,2039.02,2200.84,2244.69,2524.33,600.24,600.25,43.19,0000 0000 0000 0000 000000
2016-03-10 10:01:13,0.14,3.95,0.00,20.68,24.96,28.88,14.74,49.06,1015.66,2039.09,2198.74,2243.24,2522.91,600.01,600.25,43.24,0000 0000 0000 0000 000000
2016-03-10 10:06:14,0.13,3.95,0.00,20.66,24.94,28.90,14.71,49.08,1015.69,2039.24,2197.23,2242.35,2521.73,599.49,599.75,43.29,0000 0000 0000 0000 000000
2016-03-10 10:11:15,0.13,3.96,0.00,20.61,24.91,28.86,14.84,49.11,1015.94,2039.67,2195.94,2241.59,2520.89,600.15,600.63,43.34,0000 0000 0000 0000 000000
2016-03-10 10:16:16,0.15,3.97,0.00,20.61,24.89,28.81,14.71,49.09,1016.06,2039.88,2194.46,2240.60,2519.75,600.05,600.62,43.39,0000 0000 0000 0000 000000
2016-03-10 10:21:18,0.15,3.98,0.00,20.59,24.86,28.84,14.71,49.13,1016.08,2039.97,2192.32,2239.19,2518.24,599.90,600.50,43.44,0000 0000 0000 0000 000000
2016-03-10 10:26:19,0.11,3.98,0.00,20.55,24.84,28.79,14.74,49.07,1016.12,2039.98,2190.73,2238.23,2517.10,599.91,600.69,43.49,0000 0000 0000 0000 000000
2016-03-10 10:31:20,0.10,3.99,0.00,20.53,24.82,28.75,14.79,49.06,1016.13,2039.99,2189.45,2237.34,2516.10,600.34,601.20,43.54,0000 0000 0000 0000 000000
2016-03-10 10:36:21,0.21,4.00,0.00,20.49,24.80,28.74,14.73,49.23,1016.13,2039.99,2187.19,2235.93,2514.48,600.23,601.12,43.59,0000 0000 0000 0000 000000
2016-03-10 10:41:22,0.27,4.01,0.00,20.47,24.77,28.74,14.64,49.11,1016.13,2040.00,2183.49,2233.48,2511.80,599.76,600.71,43.65,0000 0000 0000 0000 000000
2016-03-10 10:46:24,0.12,4.02,0.00,20.44,24.75,28.70,14.72,49.04,1016.13,2040.00,2181.65,2232.34,2510.53,599.69,600.53,43.70,0000 0000 0000 0000 000000
2016-03-10 10:51:25,0.13,4.03,0.00,20.41,24.73,28.69,14.70,49.13,1016.14,2040.09,2180.08,2231.05,2509.14,600.18,601.19,43.75,0000 0000 0000 0000 000000
2016-03-10 10:56:26,0.51,4.04,0.00,20.39,24.71,28.69,14.75,48.92,1016.15,2040.16,2175.76,2227.94,2505.38,599.77,600.83,43.80,0000 0000 0000 0000 000000
2016-03-10 11:01:28,0.74,4.08,0.00,20.37,24.70,28.66,14.72,49.07,1016.15,2040.29,2167.64,2221.95,2498.22,600.04,601.17,43.85,0000 0000 0000 0000 000000
2016-03-10 11:06:29,0.48,4.11,0.00,20.34,24.67,28.68,14.72,49.10,1016.14,2040.57,2161.57,2217.26,2493.05,600.05,601.17,43.90,0000 0000 0000 0000 000000
2016-03-10 11:11:30,0.16,4.12,0.00,20.30,24.65,28.62,14.72,49.06,1016.14,2040.88,2159.21,2215.35,2490.93,599.80,601.01,43.95,0000 0000 0000 0000 000000
2016-03-10 11:16:31,0.06,4.13,0.00,20.28,24.64,28.60,14.71,49.27,1016.16,2040.93,2158.15,2214.98,2490.06,600.13,601.27,44.00,0000 0000 0000 0000 000000
2016-03-10 11:21:32,0.04,4.13,0.00,20.25,24.62,28.66,14.76,49.21,1016.24,2040.96,2157.99,2214.39,2489.97,600.06,601.46,44.05,0000 0000 0000 0000 000000
2016-03-10 11:26:34,0.05,4.13,0.00,20.21,24.60,28.62,14.77,49.18,1016.35,2040.98,2157.35,2214.01,2489.40,600.19,601.62,44.10,0000 0000 0000 0000 000000
2016-03-10 11:31:35,0.01,4.13,0.00,20.18,24.58,28.65,14.71,49.05,1016.53,2040.99,2157.00,2213.96,2489.01,599.82,601.47,44.15,0000 0000 0000 0000 000000
2016-03-10 11:36:36,0.07,4.13,0.00,20.15,24.56,28.60,14.78,49.26,1016.56,2040.99,2156.35,2213.33,2488.88,600.07,601.79,44.20,0000 0000 0000 0000 000000
2016-03-10 11:41:38,0.02,4.14,0.00,20.13,24.54,28.60,14.72,49.12,1016.59,2040.99,2156.00,2213.01,2488.16,600.13,601.79,44.25,0000 0000 0000 0000 000000
2016-03-10 11:46:39,0.03,4.14,0.00,20.11,24.52,28.52,14.85,49.47,1016.60,2041.00,2155.42,2212.93,2488.00,600.24,602.11,44.30,0000 0000 0000 0000 000000
2016-03-10 11:51:40,0.05,4.14,0.00,20.08,24.50,28.53,14.69,49.04,1016.59,2041.00,2155.01,2212.23,2487.79,599.88,601.78,44.35,0000 0000 0000 0000 000000
2016-03-10 11:56:42,0.04,4.14,0.00,20.05,24.48,28.50,14.74,48.97,1016.60,2041.02,2154.68,2212.01,2487.09,599.97,601.98,44.40,0000 0000 0000 0000 000000
2016-03-10 12:01:42,0.02,4.14,0.00,20.03,24.47,28.47,14.77,48.98,1016.61,2041.07,2154.07,2211.98,2486.98,600.29,602.26,44.45,0000 0000 0000 0000 000000
2016-03-10 12:06:44,0.05,4.15,0.00,20.01,24.45,28.48,14.69,48.88,1016.61,2041.12,2153.98,2211.51,2486.42,599.73,601.84,44.50,0000 0000 0000 0000 000000
2016-03-10 12:11:45,0.08,4.15,0.00,19.99,24.43,28.54,14.76,48.91,1016.62,2041.32,2153.36,2211.04,2486.03,600.07,602.25,44.56,0000 0000 0000 0000 000000
2016-03-10 12:16:46,0.04,4.15,0.00,19.95,24.41,28.42,14.74,48.73,1016.61,2041.76,2153.00,2211.00,2485.97,599.82,602.05,44.61,0000 0000 0000 0000 000000
2016-03-10 12:21:47,0.06,4.15,0.00,19.94,24.39,28.40,14.69,48.95,1016.62,2041.85,2152.50,2210.85,2485.36,599.77,602.06,44.66,0000 0000 0000 0000 000000
2016-03-10 12:26:49,0.04,4.16,0.00,19.92,24.36,28.43,14.74,49.16,1016.62,2041.95,2152.00,2210.14,2485.01,599.83,602.02,44.71,0000 0000 0000 0000 000000
2016-03-10 12:31:50,0.03,4.16,0.00,19.90,24.34,28.37,14.74,49.05,1016.62,2041.98,2151.50,2210.00,2484.99,600.00,602.34,44.76,0000 0000 0000 0000 000000
2016-03-10 12:36:51,0.03,4.16,0.00,19.87,24.31,28.29,14.63,48.87,1016.62,2041.99,2151.01,2209.97,2484.43,599.65,602.04,44.81,0000 0000 0000 0000 000000
2016-03-10 12:41:53,0.07,4.16,0.00,19.86,24.29,28.37,14.72,49.02,1016.63,2041.99,2150.50,2209.32,2484.01,599.97,602.40,44.86,0000 0000 0000 0000 000000
2016-03-10 12:46:54,0.02,4.17,0.00,19.82,24.26,28.37,14.77,49.19,1016.63,2041.99,2149.95,2209.00,2483.81,599.77,602.31,44.91,0000 0000 0000 0000 000000
2016-03-10 12:51:56,0.06,4.17,0.00,19.78,24.23,28.21,14.78,49.18,1016.67,2042.01,2149.14,2208.75,2483.07,599.94,602.43,44.96,0000 0000 0000 0000 000000
2016-03-10 12:56:57,0.03,4.17,0.00,19.76,24.21,28.16,14.72,49.02,1016.67,2042.03,2148.94,2208.10,2482.97,599.56,602.28,45.01,0000 0000 0000 0000 000000